,,,PA_Meas_PMT16A,,PR_Meas_QMR101_102,,RH_Meas_QMH101,,SR_Meas_QMS101,,TA_Meas_QMH101,,GenWind,,GenWind,
date,time,status,PA,status,PR,status,RH,status,SR,status,TA,status,DirAvg,status,SpdAvg,
2008-07-26, 08:23:04,INVALID - VALUE NOT AVAILABLE,0,INVALID - VALUE NOT AVAILABLE,0,INVALID - VALUE NOT AVAILABLE,0,INVALID - VALUE NOT AVAILABLE,0,INVALID - VALUE NOT AVAILABLE,0,INVALID,360,INVALID,0,
2008-07-26, 08:24:04,VALID,1004.97,VALID,0,VALID,94.7507,VALID,60.8406,VALID,24.0345,VALID,351,VALID,0.321875,
2008-07-26, 08:25:04,VALID,1004.95,VALID,0,VALID,94.8194,VALID,61.7456,VALID,24.0557,VALID,3,VALID,0.507031,
2008-07-26, 08:26:04,VALID,1004.96,VALID,0,VALID,94.8117,VALID,62.5502,VALID,24.0539,VALID,355,VALID,0.275391,
2008-07-26, 08:27:04,VALID,1004.95,VALID,0,VALID,94.7736,VALID,63.3547,VALID,24.0539,VALID,341,VALID,0.467578,
2008-07-26, 08:28:04,VALID,1004.95,VALID,0,VALID,94.8194,VALID,64.1592,VALID,24.0752,VALID,333,VALID,0.125391,
2008-07-26, 08:29:04,VALID,1004.94,VALID,0,VALID,94.9338,VALID,64.9637,VALID,24.1142,VALID,333,VALID,0.0820313,
2008-07-26, 08:30:04,VALID,1004.97,VALID,0,VALID,94.7507,VALID,65.8687,VALID,24.1142,VALID,338,VALID,0.611328,
2008-07-26, 08:31:04,VALID,1005.01,VALID,0,VALID,94.8041,VALID,66.9749,VALID,24.0947,VALID,341,VALID,0.000390625,
2008-07-26, 08:32:04,VALID,1005.04,VALID,0,VALID,94.7583,VALID,68.2822,VALID,24.0734,VALID,340,VALID,0.292969,
2008-07-26, 08:33:04,VALID,1005.04,VALID,0,VALID,94.827,VALID,69.9918,VALID,24.1142,VALID,342,VALID,0.172266,
2008-07-26, 08:34:04,VALID,1005.06,VALID,0,VALID,94.9109,VALID,72.3048,VALID,24.1123,VALID,352,VALID,0.328516,
2008-07-26, 08:35:04,VALID,1005.09,VALID,0,VALID,94.8728,VALID,75.02,VALID,24.1726,VALID,355,VALID,0.365234,
2008-07-26, 08:36:04,VALID,1005.09,VALID,0,VALID,94.7507,VALID,78.6402,VALID,24.1531,VALID,23,VALID,0.305469,
2008-07-26, 08:37:04,VALID,1005.09,VALID,0,VALID,94.6057,VALID,82.7633,VALID,24.1318,VALID,6,VALID,0.442578,
2008-07-26, 08:38:04,VALID,1005.12,VALID,0,VALID,94.3692,VALID,88.0931,VALID,24.1355,VALID,15,VALID,0.96875,
2008-07-26, 08:39:04,VALID,1005.15,VALID,0,VALID,93.9039,VALID,94.328,VALID,24.0557,VALID,27,VALID,1.11875,
2008-07-26, 08:40:04,VALID,1005.18,VALID,0,VALID,93.8886,VALID,102.775,VALID,24.0965,VALID,15,VALID,1.07852,
2008-07-26, 08:41:04,VALID,1005.22,VALID,0,VALID,93.881,VALID,112.731,VALID,24.1142,VALID,35,VALID,0.946094,
2008-07-26, 08:42:04,VALID,1005.2,VALID,0,VALID,93.3928,VALID,120.977,VALID,24.0947,VALID,7,VALID,2.03633,
2008-07-26, 08:43:04,VALID,1005.26,VALID,0,VALID,93.3622,VALID,128.017,VALID,24.1142,VALID,30,VALID,0.992188,
2008-07-26, 08:44:04,VALID,1005.24,VALID,0,VALID,92.9274,VALID,136.464,VALID,24.1355,VALID,37,VALID,1.01367,
2008-07-26, 08:45:04,VALID,1005.28,VALID,0,VALID,92.9045,VALID,147.828,VALID,24.1318,VALID,26,VALID,0.941797,
2008-07-26, 08:46:04,VALID,1005.29,VALID,0,VALID,92.5993,VALID,161.102,VALID,24.1531,VALID,19,VALID,1.16562,
2008-07-26, 08:47:04,VALID,1005.27,VALID,0.5,VALID,92.8282,VALID,174.98,VALID,24.2133,VALID,38,VALID,0.787109,
2008-07-26, 08:48:04,VALID,1005.29,VALID,0,VALID,93.0266,VALID,189.662,VALID,24.231,VALID,44,VALID,0.435156,
2008-07-26, 08:49:04,VALID,1005.29,VALID,0,VALID,92.9732,VALID,204.847,VALID,24.2894,VALID,35,VALID,0.680469,
2008-07-26, 08:50:04,VALID,1005.31,VALID,0,VALID,93.0876,VALID,220.635,VALID,24.3088,VALID,355,VALID,0.219141,
2008-07-26, 08:51:04,VALID,1005.32,VALID,0,VALID,92.9274,VALID,233.909,VALID,24.3478,VALID,36,VALID,0.998438,
2008-07-26, 08:52:04,VALID,1005.34,VALID,0,VALID,93.1029,VALID,243.463,VALID,24.3867,VALID,33,VALID,0.233594,
2008-07-26, 08:53:04,VALID,1005.39,VALID,0,VALID,93.2631,VALID,249.798,VALID,24.4628,VALID,33,VALID,0,
2008-07-26, 08:54:04,VALID,1005.37,VALID,0,VALID,92.8206,VALID,250.603,VALID,24.5017,VALID,352,VALID,0.487891,
2008-07-26, 08:55:04,VALID,1005.4,VALID,0,VALID,92.9884,VALID,242.658,VALID,24.5406,VALID,352,VALID,0.732813,
2008-07-26, 08:56:04,VALID,1005.41,VALID,0,VALID,92.935,VALID,221.238,VALID,24.5796,VALID,354,VALID,0.353516,
2008-07-26, 08:57:04,VALID,1005.38,VALID,0,VALID,93.1257,VALID,212.49,VALID,24.6788,VALID,354,VALID,0.407422,
2008-07-26, 08:58:04,VALID,1005.41,VALID,0,VALID,93.2631,VALID,212.288,VALID,24.7353,VALID,354,VALID,0.0773437,
2008-07-26, 08:59:04,VALID,1005.38,VALID,0,VALID,92.9884,VALID,215.909,VALID,24.8132,VALID,350,VALID,0.499219,
2008-07-26, 09:00:04,VALID,1005.38,VALID,0,VALID,92.6985,VALID,219.529,VALID,24.854,VALID,352,VALID,0.425781,
2008-07-26, 09:01:04,VALID,1005.35,VALID,0,VALID,92.3934,VALID,221.641,VALID,24.8522,VALID,338,VALID,0.500781,
2008-07-26, 09:02:04,VALID,1005.35,VALID,0,VALID,92.4849,VALID,222.043,VALID,24.93,VALID,343,VALID,0.473047,
2008-07-26, 09:03:04,VALID,1005.34,VALID,0,VALID,91.6763,VALID,222.646,VALID,24.9319,VALID,343,VALID,0.541406,
2008-07-26, 09:04:04,VALID,1005.32,VALID,0,VALID,91.4855,VALID,224.758,VALID,24.9106,VALID,342,VALID,0.263281,
2008-07-26, 09:05:04,VALID,1005.33,VALID,0,VALID,91.3787,VALID,225.362,VALID,24.9319,VALID,342,VALID,0.188281,
2008-07-26, 09:06:04,VALID,1005.29,VALID,0,VALID,91.4779,VALID,225.362,VALID,24.93,VALID,342,VALID,0.0894531,
2008-07-26, 09:07:04,VALID,1005.32,VALID,0,VALID,91.6763,VALID,223.954,VALID,24.9904,VALID,344,VALID,0.171484,
2008-07-26, 09:08:04,VALID,1005.32,VALID,0,VALID,92.0501,VALID,220.736,VALID,25.0274,VALID,344,VALID,0.009375,
2008-07-26, 09:09:04,VALID,1005.32,VALID,0,VALID,91.2948,VALID,216.914,VALID,25.0877,VALID,344,VALID,0.315234,
2008-07-26, 09:10:04,VALID,1005.32,VALID,0,VALID,91.2338,VALID,212.691,VALID,25.1072,VALID,344,VALID,0,
2008-07-26, 09:11:04,VALID,1005.29,VALID,0,VALID,91.5389,VALID,208.668,VALID,25.1248,VALID,344,VALID,0,
2008-07-26, 09:12:04,VALID,1005.29,VALID,0,VALID,91.9433,VALID,207.26,VALID,25.224,VALID,344,VALID,0,
2008-07-26, 09:13:04,VALID,1005.3,VALID,0,VALID,91.4855,VALID,208.869,VALID,25.2435,VALID,80,VALID,0.708984,
2008-07-26, 09:14:04,VALID,1005.27,VALID,0,VALID,90.1657,VALID,215.004,VALID,25.1442,VALID,90,VALID,0.427344,
2008-07-26, 09:15:04,VALID,1005.26,VALID,0,VALID,90.6616,VALID,224.758,VALID,25.1851,VALID,90,VALID,0.544922,
2008-07-26, 09:16:04,VALID,1005.23,VALID,0,VALID,90.7532,VALID,235.317,VALID,25.2046,VALID,86,VALID,0.622656,
2008-07-26, 09:17:04,VALID,1005.2,VALID,0,VALID,91.6534,VALID,245.675,VALID,25.263,VALID,81,VALID,0.239453,
2008-07-26, 09:18:04,VALID,1005.21,VALID,0,VALID,91.1499,VALID,259.151,VALID,25.3019,VALID,44,VALID,0.623438,
2008-07-26, 09:19:04,VALID,1005.2,VALID,0,VALID,91.455,VALID,267.296,VALID,25.3428,VALID,33,VALID,0.486328,
2008-07-26, 09:20:04,VALID,1005.17,VALID,0,VALID,91.9356,VALID,272.224,VALID,25.3993,VALID,12,VALID,0.527734,
2008-07-26, 09:21:04,VALID,1005.16,VALID,0,VALID,91.2567,VALID,274.436,VALID,25.4383,VALID,354,VALID,0.358594,
2008-07-26, 09:22:04,VALID,1005.16,VALID,0,VALID,91.6305,VALID,275.643,VALID,25.5181,VALID,354,VALID,0.0976563,
2008-07-26, 09:23:04,VALID,1005.14,VALID,0,VALID,90.8066,VALID,277.151,VALID,25.5357,VALID,359,VALID,0.4125,
2008-07-26, 09:24:04,VALID,1005.15,VALID,0,VALID,90.5624,VALID,279.867,VALID,25.5357,VALID,359,VALID,0,
2008-07-26, 09:25:04,VALID,1005.13,VALID,0,VALID,90.9744,VALID,283.487,VALID,25.633,VALID,5,VALID,0.283984,
2008-07-26, 09:26:04,VALID,1005.15,VALID,0,VALID,91.1193,VALID,289.32,VALID,25.7304,VALID,4,VALID,0.0953125,
2008-07-26, 09:27:04,VALID,1005.18,VALID,0,VALID,89.975,VALID,301.387,VALID,25.7324,VALID,8,VALID,0.625391,
2008-07-26, 09:28:04,VALID,1005.15,VALID,0,VALID,88.5255,VALID,307.019,VALID,25.7109,VALID,8,VALID,0.505859,
2008-07-26, 09:29:04,VALID,1005.17,VALID,0,VALID,89.2121,VALID,300.884,VALID,25.7499,VALID,20,VALID,0.485156,
2008-07-26, 09:30:04,VALID,1005.15,VALID,0,VALID,89.2655,VALID,301.387,VALID,25.8278,VALID,19,VALID,0.145313,
2008-07-26, 09:31:04,VALID,1005.16,VALID,0,VALID,90.0055,VALID,303.499,VALID,25.9447,VALID,19,VALID,0.146484,
2008-07-26, 09:32:04,VALID,1005.14,VALID,0,VALID,88.289,VALID,306.918,VALID,25.9447,VALID,19,VALID,0.239453,
2008-07-26, 09:33:04,VALID,1005.12,VALID,0,VALID,87.5795,VALID,308.527,VALID,26.0031,VALID,19,VALID,0,
2008-07-26, 09:34:04,VALID,1005.06,VALID,0,VALID,87.9915,VALID,308.527,VALID,26.1005,VALID,19,VALID,0,
2008-07-26, 09:35:04,VALID,1005.06,VALID,0,VALID,87.1371,VALID,301.89,VALID,26.159,VALID,14,VALID,0.0949219,
2008-07-26, 09:36:04,VALID,1005.03,VALID,0,VALID,87.5872,VALID,294.046,VALID,26.2759,VALID,9,VALID,0.371484,
2008-07-26, 09:37:04,VALID,1005.06,VALID,0,VALID,85.9241,VALID,285.9,VALID,26.2953,VALID,360,VALID,0.412109,
2008-07-26, 09:38:04,VALID,1005.06,VALID,0,VALID,84.734,VALID,279.062,VALID,26.3343,VALID,360,VALID,0.466797,
2008-07-26, 09:39:04,VALID,1005.05,VALID,0,VALID,84.9857,VALID,273.028,VALID,26.3343,VALID,360,VALID,0.0265625,
2008-07-26, 09:40:04,VALID,1005.09,VALID,0,VALID,83.7498,VALID,266.894,VALID,26.3733,VALID,360,VALID,0,
2008-07-26, 09:41:04,VALID,1005.13,VALID,0,VALID,84.6501,VALID,259.553,VALID,26.4317,VALID,360,VALID,0.269531,
2008-07-26, 09:42:04,VALID,1005.13,VALID,0,VALID,84.1389,VALID,251.307,VALID,26.4512,VALID,31,VALID,0.0746094,
2008-07-26, 09:43:04,VALID,1005.13,VALID,0,VALID,83.9177,VALID,243.262,VALID,26.4707,VALID,41,VALID,0.327344,
2008-07-26, 09:44:04,VALID,1005.13,VALID,0,VALID,83.3455,VALID,235.619,VALID,26.4492,VALID,131,VALID,0.559375,
2008-07-26, 09:45:04,VALID,1005.14,VALID,0,VALID,83.1014,VALID,228.378,VALID,26.4297,VALID,135,VALID,0.327734,
2008-07-26, 09:46:04,VALID,1005.15,VALID,0,VALID,83.6583,VALID,220.836,VALID,26.4317,VALID,117,VALID,0.691016,
2008-07-26, 09:47:04,VALID,1005.15,VALID,0,VALID,83.5668,VALID,214.903,VALID,26.3927,VALID,101,VALID,0.361328,
2008-07-26, 09:48:04,VALID,1005.16,VALID,0,VALID,84.2381,VALID,209.674,VALID,26.4122,VALID,101,VALID,0.201953,
2008-07-26, 09:49:04,VALID,1005.15,VALID,0,VALID,85.3443,VALID,206.154,VALID,26.4122,VALID,101,VALID,0.430859,
2008-07-26, 09:50:04,VALID,1005.2,VALID,0,VALID,84.6195,VALID,204.143,VALID,26.4317,VALID,101,VALID,0.383203,
2008-07-26, 09:51:04,VALID,1005.19,VALID,0,VALID,84.7035,VALID,203.037,VALID,26.3927,VALID,102,VALID,0.665625,
2008-07-26, 09:52:04,VALID,1005.18,VALID,0,VALID,85.5732,VALID,202.634,VALID,26.3927,VALID,101,VALID,0.270312,
2008-07-26, 09:53:04,VALID,1005.22,VALID,0,VALID,86.6183,VALID,203.137,VALID,26.4317,VALID,101,VALID,0.394531,
2008-07-26, 09:54:04,VALID,1005.18,VALID,0,VALID,84.528,VALID,204.344,VALID,26.4122,VALID,103,VALID,0.774609,
2008-07-26, 09:55:04,VALID,1005.2,VALID,0,VALID,85.1765,VALID,205.752,VALID,26.3927,VALID,103,VALID,0.253516,
2008-07-26, 09:56:04,VALID,1005.19,VALID,0,VALID,84.9247,VALID,206.757,VALID,26.4142,VALID,55,VALID,0.400781,
2008-07-26, 09:57:04,VALID,1005.15,VALID,0,VALID,84.8179,VALID,207.864,VALID,26.3927,VALID,58,VALID,0.719531,
2008-07-26, 09:58:04,VALID,1005.15,VALID,0,VALID,84.4975,VALID,209.271,VALID,26.4337,VALID,70,VALID,0.360938,
2008-07-26, 09:59:04,VALID,1005.16,VALID,0,VALID,84.5738,VALID,211.082,VALID,26.4122,VALID,67,VALID,0.201172,
2008-07-26, 10:00:04,VALID,1005.12,VALID,0,VALID,83.8185,VALID,212.691,VALID,26.4122,VALID,32,VALID,0.55,
2008-07-26, 10:01:04,VALID,1005.07,VALID,0,VALID,83.2616,VALID,213.696,VALID,26.4512,VALID,29,VALID,0.459375,
2008-07-26, 10:02:04,VALID,1005.04,VALID,0,VALID,82.5521,VALID,213.897,VALID,26.4492,VALID,21,VALID,0.310547,
2008-07-26, 10:03:04,VALID,1005.01,VALID,0,VALID,83.8338,VALID,213.093,VALID,26.5096,VALID,21,VALID,0.336328,
2008-07-26, 10:04:04,VALID,1004.97,VALID,0,VALID,83.5668,VALID,211.584,VALID,26.5271,VALID,21,VALID,0.194141,
2008-07-26, 10:05:04,VALID,1004.96,VALID,0,VALID,82.7581,VALID,209.271,VALID,26.5486,VALID,21,VALID,0.182812,
2008-07-26, 10:06:04,VALID,1004.94,VALID,0,VALID,83.8414,VALID,206.255,VALID,26.6285,VALID,21,VALID,0.00234375,
2008-07-26, 10:07:04,VALID,1004.94,VALID,0,VALID,83.6812,VALID,202.835,VALID,26.6265,VALID,21,VALID,0.0460938,
2008-07-26, 10:08:04,VALID,1004.91,VALID,0,VALID,83.0632,VALID,198.913,VALID,26.687,VALID,31,VALID,0.311328,
2008-07-26, 10:09:04,VALID,1004.89,VALID,0,VALID,82.1707,VALID,194.79,VALID,26.6265,VALID,163,VALID,0.419141,
2008-07-26, 10:10:04,VALID,1004.89,VALID,0,VALID,81.3467,VALID,190.768,VALID,26.5681,VALID,163,VALID,0.7625,
2008-07-26, 10:11:04,VALID,1004.88,VALID,0,VALID,81.9037,VALID,186.745,VALID,26.5681,VALID,165,VALID,0.546484,
2008-07-26, 10:12:04,VALID,1004.89,VALID,0,VALID,82.9564,VALID,182.823,VALID,26.5896,VALID,165,VALID,0.289453,
2008-07-26, 10:13:04,VALID,1004.95,VALID,0,VALID,83.9101,VALID,179.203,VALID,26.5876,VALID,165,VALID,0.430078,
2008-07-26, 10:14:04,VALID,1004.96,VALID,0,VALID,81.6138,VALID,175.683,VALID,26.5486,VALID,165,VALID,0.172266,
2008-07-26, 10:15:04,VALID,1004.95,VALID,0,VALID,82.9946,VALID,172.667,VALID,26.6091,VALID,165,VALID,0.278125,
2008-07-26, 10:16:04,VALID,1004.98,VALID,0,VALID,82.4224,VALID,170.052,VALID,26.6091,VALID,165,VALID,0.347656,
2008-07-26, 10:17:04,VALID,1004.97,VALID,0,VALID,81.8655,VALID,167.739,VALID,26.5896,VALID,165,VALID,0.0234375,
2008-07-26, 10:18:04,VALID,1004.97,VALID,0,VALID,82.3232,VALID,165.325,VALID,26.5681,VALID,165,VALID,0,
2008-07-26, 10:19:04,VALID,1005,VALID,0,VALID,82.0028,VALID,163.113,VALID,26.5896,VALID,165,VALID,0,
2008-07-26, 10:20:04,VALID,1005,VALID,0,VALID,82.7047,VALID,161.102,VALID,26.607,VALID,165,VALID,0,
2008-07-26, 10:21:04,VALID,1004.97,VALID,0,VALID,83.3608,VALID,159.292,VALID,26.687,VALID,165,VALID,0,
2008-07-26, 10:22:04,VALID,1005,VALID,0,VALID,82.8649,VALID,157.783,VALID,26.726,VALID,163,VALID,0.326562,
2008-07-26, 10:23:04,VALID,1005.02,VALID,0,VALID,84.2991,VALID,156.476,VALID,26.7045,VALID,162,VALID,0.119922,
2008-07-26, 10:24:04,VALID,1005.04,VALID,0,VALID,83.6278,VALID,155.671,VALID,26.644,VALID,130,VALID,0.335156,
2008-07-26, 10:25:04,VALID,1005.03,VALID,0,VALID,83.1929,VALID,154.666,VALID,26.6265,VALID,72,VALID,0.299219,
2008-07-26, 10:26:04,VALID,1005.06,VALID,0,VALID,83.5668,VALID,153.962,VALID,26.6091,VALID,57,VALID,0.181641,
2008-07-26, 10:27:04,VALID,1005.02,VALID,0,VALID,83.6659,VALID,153.258,VALID,26.6285,VALID,57,VALID,0,
2008-07-26, 10:28:05,VALID,1005.01,VALID,0,VALID,84.8408,VALID,152.252,VALID,26.646,VALID,57,VALID,0.207422,
2008-07-26, 10:29:05,VALID,1005,VALID,0,VALID,84.2457,VALID,151.146,VALID,26.6285,VALID,31,VALID,0.630078,
2008-07-26, 10:30:05,VALID,1004.99,VALID,0,VALID,84.3754,VALID,150.14,VALID,26.6265,VALID,31,VALID,0.0707031,
2008-07-26, 10:31:05,VALID,1005,VALID,0,VALID,82.8496,VALID,149.135,VALID,26.5896,VALID,31,VALID,0.592188,
2008-07-26, 10:32:05,VALID,1004.98,VALID,0,VALID,84.2991,VALID,148.431,VALID,26.6285,VALID,31,VALID,0.195703,
2008-07-26, 10:33:05,VALID,1004.96,VALID,0,VALID,83.4981,VALID,147.928,VALID,26.5701,VALID,31,VALID,0.3375,
2008-07-26, 10:34:05,VALID,1004.97,VALID,0,VALID,83.5057,VALID,147.425,VALID,26.5311,VALID,31,VALID,0.362109,
2008-07-26, 10:35:05,VALID,1004.95,VALID,0,VALID,82.6894,VALID,146.922,VALID,26.4901,VALID,82,VALID,0.589063,
2008-07-26, 10:36:05,VALID,1004.93,VALID,0,VALID,84.2381,VALID,146.42,VALID,26.4707,VALID,93,VALID,0.669141,
2008-07-26, 10:37:05,VALID,1004.95,VALID,0,VALID,84.6043,VALID,146.017,VALID,26.4512,VALID,93,VALID,0.238281,
2008-07-26, 10:38:05,VALID,1004.95,VALID,0,VALID,85.0849,VALID,144.911,VALID,26.4532,VALID,93,VALID,0.0992187,
2008-07-26, 10:39:05,VALID,1004.95,VALID,0,VALID,85.0849,VALID,143.805,VALID,26.4532,VALID,92,VALID,0.395312,
2008-07-26, 10:40:05,VALID,1004.94,VALID,0,VALID,83.9711,VALID,142.699,VALID,26.3753,VALID,93,VALID,0.689453,
2008-07-26, 10:41:05,VALID,1004.95,VALID,0,VALID,84.4212,VALID,141.794,VALID,26.3753,VALID,97,VALID,0.787891,
2008-07-26, 10:42:05,VALID,1004.95,VALID,0,VALID,84.7111,VALID,140.788,VALID,26.3148,VALID,91,VALID,0.717969,
2008-07-26, 10:43:05,VALID,1004.93,VALID,0,VALID,84.5814,VALID,140.084,VALID,26.3168,VALID,92,VALID,0.527344,
2008-07-26, 10:44:05,VALID,1004.93,VALID,0,VALID,84.6882,VALID,139.28,VALID,26.3363,VALID,92,VALID,0.0851562,
2008-07-26, 10:45:05,VALID,1004.95,VALID,0,VALID,85.6952,VALID,138.375,VALID,26.3558,VALID,91,VALID,0,
2008-07-26, 10:46:05,VALID,1004.92,VALID,0,VALID,84.8408,VALID,137.57,VALID,26.3538,VALID,91,VALID,0.585547,
2008-07-26, 10:47:05,VALID,1004.91,VALID,0,VALID,84.6195,VALID,136.766,VALID,26.3343,VALID,91,VALID,0.311719,
2008-07-26, 10:48:05,VALID,1004.9,VALID,0,VALID,85.329,VALID,136.062,VALID,26.3753,VALID,91,VALID,0.227734,
2008-07-26, 10:49:05,VALID,1004.87,VALID,0,VALID,85.1078,VALID,135.76,VALID,26.4142,VALID,80,VALID,0.217578,
2008-07-26, 10:50:05,VALID,1004.81,VALID,0,VALID,86.008,VALID,136.062,VALID,26.4727,VALID,80,VALID,0.382031,
2008-07-26, 10:51:05,VALID,1004.81,VALID,0,VALID,86.6641,VALID,137.168,VALID,26.4727,VALID,79,VALID,0.0472656,
2008-07-26, 10:52:05,VALID,1004.81,VALID,0,VALID,86.7099,VALID,139.079,VALID,26.4512,VALID,48,VALID,0.132813,
2008-07-26, 10:53:05,VALID,1004.77,VALID,0,VALID,86.6488,VALID,142.095,VALID,26.4901,VALID,48,VALID,0.194141,
2008-07-26, 10:54:05,VALID,1004.75,VALID,0,VALID,87.0837,VALID,145.816,VALID,26.4881,VALID,56,VALID,0.166797,
2008-07-26, 10:55:05,VALID,1004.72,VALID,0,VALID,86.6031,VALID,150.04,VALID,26.4512,VALID,91,VALID,0.631641,
2008-07-26, 10:56:05,VALID,1004.72,VALID,0,VALID,87.488,VALID,154.867,VALID,26.4297,VALID,96,VALID,0.394922,
2008-07-26, 10:57:05,VALID,1004.69,VALID,0,VALID,86.9311,VALID,159.694,VALID,26.3907,VALID,96,VALID,0.654297,
2008-07-26, 10:58:05,VALID,1004.69,VALID,0,VALID,87.2896,VALID,164.219,VALID,26.4512,VALID,48,VALID,0.345703,
2008-07-26, 10:59:05,VALID,1004.68,VALID,0,VALID,86.7938,VALID,168.544,VALID,26.4317,VALID,39,VALID,0.328125,
2008-07-26, 11:00:05,VALID,1004.68,VALID,0,VALID,86.5191,VALID,172.465,VALID,26.4102,VALID,39,VALID,0.191406,
2008-07-26, 11:01:05,VALID,1004.65,VALID,0,VALID,87.2668,VALID,176.287,VALID,26.5096,VALID,38,VALID,0.000390625,
2008-07-26, 11:02:05,VALID,1004.62,VALID,0,VALID,85.8325,VALID,179.907,VALID,26.4492,VALID,28,VALID,0.510938,
2008-07-26, 11:03:05,VALID,1004.62,VALID,0,VALID,85.8096,VALID,183.628,VALID,26.4297,VALID,23,VALID,0.639844,
2008-07-26, 11:04:05,VALID,1004.59,VALID,0,VALID,85.8173,VALID,187.55,VALID,26.4122,VALID,23,VALID,0.469141,
2008-07-26, 11:05:05,VALID,1004.57,VALID,0,VALID,87.4117,VALID,191.371,VALID,26.4297,VALID,26,VALID,0.289844,
2008-07-26, 11:06:05,VALID,1004.56,VALID,0,VALID,87.8008,VALID,194.891,VALID,26.4881,VALID,12,VALID,0.213672,
2008-07-26, 11:07:05,VALID,1004.55,VALID,0,VALID,87.3583,VALID,198.008,VALID,26.5271,VALID,7,VALID,0.552734,
2008-07-26, 11:08:05,VALID,1004.52,VALID,0,VALID,87.1905,VALID,200.925,VALID,26.6265,VALID,360,VALID,0.328125,
2008-07-26, 11:09:05,VALID,1004.48,VALID,0,VALID,84.4136,VALID,203.539,VALID,26.5896,VALID,7,VALID,0.48125,
2008-07-26, 11:10:05,VALID,1004.44,VALID,0,VALID,85.0696,VALID,205.752,VALID,26.5876,VALID,7,VALID,0.357422,
2008-07-26, 11:11:05,VALID,1004.41,VALID,0,VALID,84.1313,VALID,207.864,VALID,26.607,VALID,360,VALID,0.295703,
2008-07-26, 11:12:05,VALID,1004.39,VALID,0,VALID,85.8478,VALID,210.076,VALID,26.685,VALID,360,VALID,0.603906,
2008-07-26, 11:13:05,VALID,1004.4,VALID,0,VALID,86.2903,VALID,212.59,VALID,26.7239,VALID,344,VALID,0.469141,
2008-07-26, 11:14:05,VALID,1004.35,VALID,0,VALID,86.481,VALID,215.305,VALID,26.7824,VALID,344,VALID,0.388672,
2008-07-26, 11:15:05,VALID,1004.34,VALID,0,VALID,87.0913,VALID,218.121,VALID,26.8603,VALID,344,VALID,0.194531,
2008-07-26, 11:16:05,VALID,1004.34,VALID,0,VALID,86.4962,VALID,221.641,VALID,26.9188,VALID,322,VALID,0.306641,
2008-07-26, 11:17:05,VALID,1004.34,VALID,0,VALID,86.0843,VALID,225.764,VALID,26.9598,VALID,285,VALID,0.499609,
2008-07-26, 11:18:05,VALID,1004.34,VALID,0,VALID,85.062,VALID,229.887,VALID,26.9383,VALID,346,VALID,0.346094,
2008-07-26, 11:19:05,VALID,1004.33,VALID,0,VALID,84.6272,VALID,234.613,VALID,26.9598,VALID,359,VALID,0.980859,
2008-07-26, 11:20:05,VALID,1004.32,VALID,0,VALID,85.0468,VALID,239.641,VALID,26.9578,VALID,1,VALID,0.135156,
2008-07-26, 11:21:05,VALID,1004.29,VALID,0,VALID,84.7874,VALID,244.569,VALID,27.0162,VALID,1,VALID,0.369141,
2008-07-26, 11:22:05,VALID,1004.31,VALID,0,VALID,83.8948,VALID,249.195,VALID,27.0767,VALID,344,VALID,0.503516,
2008-07-26, 11:23:05,VALID,1004.33,VALID,0,VALID,84.055,VALID,253.62,VALID,27.0747,VALID,340,VALID,0.103906,
2008-07-26, 11:24:05,VALID,1004.31,VALID,0,VALID,84.2991,VALID,257.542,VALID,27.1506,VALID,339,VALID,0.380469,
2008-07-26, 11:25:05,VALID,1004.31,VALID,0,VALID,83.6964,VALID,261.464,VALID,27.2306,VALID,335,VALID,0.320313,
2008-07-26, 11:26:05,VALID,1004.31,VALID,0,VALID,82.4224,VALID,265.386,VALID,27.2716,VALID,274,VALID,0.678516,
2008-07-26, 11:27:05,VALID,1004.3,VALID,0,VALID,82.7734,VALID,269.509,VALID,27.2285,VALID,274,VALID,0.2625,
2008-07-26, 11:28:05,VALID,1004.25,VALID,0,VALID,82.163,VALID,273.732,VALID,27.25,VALID,274,VALID,0,
2008-07-26, 11:29:05,VALID,1004.24,VALID,0,VALID,82.7505,VALID,277.956,VALID,27.2695,VALID,274,VALID,0,
2008-07-26, 11:30:05,VALID,1004.2,VALID,0,VALID,82.1096,VALID,281.978,VALID,27.3085,VALID,274,VALID,0,
2008-07-26, 11:31:05,VALID,1004.2,VALID,0,VALID,82.041,VALID,285.8,VALID,27.3064,VALID,273,VALID,0.289453,
2008-07-26, 11:32:05,VALID,1004.17,VALID,0,VALID,81.835,VALID,289.42,VALID,27.2675,VALID,259,VALID,0.244141,
2008-07-26, 11:33:05,VALID,1004.16,VALID,0,VALID,81.4993,VALID,292.94,VALID,27.25,VALID,192,VALID,0.552734,
2008-07-26, 11:34:05,VALID,1004.13,VALID,0,VALID,81.4688,VALID,296.46,VALID,27.1916,VALID,192,VALID,0.254297,
2008-07-26, 11:35:05,VALID,1004.11,VALID,0,VALID,82.1402,VALID,300.18,VALID,27.1742,VALID,192,VALID,0.0359375,
2008-07-26, 11:36:05,VALID,1004.11,VALID,0,VALID,82.8802,VALID,303.6,VALID,27.2111,VALID,191,VALID,0.383984,
2008-07-26, 11:37:05,VALID,1004.1,VALID,0,VALID,83.3074,VALID,307.32,VALID,27.2326,VALID,178,VALID,0.166797,
2008-07-26, 11:38:05,VALID,1004.1,VALID,0,VALID,82.6131,VALID,311.544,VALID,27.289,VALID,178,VALID,0,
2008-07-26, 11:39:05,VALID,1004.1,VALID,0,VALID,81.2857,VALID,315.667,VALID,27.328,VALID,200,VALID,0.805078,
2008-07-26, 11:40:05,VALID,1004.09,VALID,0,VALID,81.6519,VALID,319.991,VALID,27.25,VALID,196,VALID,0.404297,
2008-07-26, 11:41:05,VALID,1004.08,VALID,0,VALID,81.4841,VALID,324.315,VALID,27.2306,VALID,196,VALID,0.258203,
2008-07-26, 11:42:05,VALID,1004.07,VALID,0,VALID,80.7898,VALID,328.941,VALID,27.1721,VALID,193,VALID,0.196094,
2008-07-26, 11:43:05,VALID,1004.05,VALID,0,VALID,82.0028,VALID,333.266,VALID,27.1526,VALID,193,VALID,0.133984,
2008-07-26, 11:44:05,VALID,1004.04,VALID,0,VALID,81.2857,VALID,337.791,VALID,27.2521,VALID,195,VALID,0.366016,
2008-07-26, 11:45:05,VALID,1004.01,VALID,0,VALID,80.4542,VALID,343.724,VALID,27.2695,VALID,308,VALID,0.552734,
2008-07-26, 11:46:05,VALID,1003.97,VALID,0,VALID,81.4078,VALID,349.557,VALID,27.289,VALID,309,VALID,0.230469,
2008-07-26, 11:47:05,VALID,1003.96,VALID,0,VALID,82.6513,VALID,355.188,VALID,27.3649,VALID,281,VALID,0.0738281,
2008-07-26, 11:48:05,VALID,1003.94,VALID,0,VALID,81.1103,VALID,361.323,VALID,27.4059,VALID,208,VALID,0.893359,
2008-07-26, 11:49:05,VALID,1003.89,VALID,0,VALID,82.1173,VALID,367.759,VALID,27.4254,VALID,209,VALID,0.198047,
2008-07-26, 11:50:05,VALID,1003.86,VALID,0,VALID,82.1707,VALID,374.295,VALID,27.5034,VALID,218,VALID,0.197266,
2008-07-26, 11:51:05,VALID,1003.86,VALID,0,VALID,81.5909,VALID,380.43,VALID,27.5813,VALID,200,VALID,0.198437,
2008-07-26, 11:52:05,VALID,1003.83,VALID,0,VALID,80.3474,VALID,387.268,VALID,27.6203,VALID,220,VALID,0.613281,
2008-07-26, 11:53:05,VALID,1003.87,VALID,0,VALID,80.0575,VALID,394.207,VALID,27.6398,VALID,220,VALID,0.395312,
2008-07-26, 11:54:05,VALID,1003.86,VALID,0,VALID,79.203,VALID,399.235,VALID,27.6029,VALID,192,VALID,0.941406,
2008-07-26, 11:55:05,VALID,1003.83,VALID,0,VALID,78.9665,VALID,404.665,VALID,27.5229,VALID,178,VALID,0.396875,
2008-07-26, 11:56:05,VALID,1003.84,VALID,0,VALID,80.1032,VALID,412.308,VALID,27.5424,VALID,146,VALID,0.900391,